Weather History for KDPA - February, 2014

Change the Weather History Date:

Sunday, February 16, 2014

  Actual Average Record
Temperature  
Mean Temperature 21 °F 28 °F  
Max Temperature 27 °F 37 °F 47 °F (2012)
Min Temperature 15 °F 20 °F -6 °F (2007)
Degree Days  
Heating Degree Days 44 37  
Month to date heating degree days 894 622  
Since 1 July heating degree days 5252 4337  
Cooling Degree Days 0 0  
Month to date cooling degree days 0 0  
Year to date cooling degree days 0 0  
Moisture  
Dew Point 14 °F    
Average Humidity 74    
Maximum Humidity 88    
Minimum Humidity 58    
Precipitation  
Precipitation T in 0.05 in 0.77 in (2006)
Month to date precipitation 0.18 0.71  
Year to date precipitation 0.99 2.02  
Sea Level Pressure  
Sea Level Pressure 30.15 in    
Wind  
Wind Speed 9 mph (North)    
Max Wind Speed 15 mph    
Max Gust Speed 20 mph    
Visibility 8 miles    
Events      
T = Trace of Precipitation, MM = Missing Value Source: NWS Daily Summary

Daily Weather History Graph

Daily Weather History Graph

Search for Another Location

Airport or City:

Trip Planner

Search our weather history database for the weather conditions in past years. The results will help you decide how hot, cold, wet, or windy it might be!

Date:

Astronomy

Feb. 16, 2014 Rise Set
Actual Time 6:47 AM CST 5:27 PM CST
Civil Twilight 6:18 AM CST 5:55 PM CST
Nautical Twilight 5:46 AM CST 6:28 PM CST
Astronomical Twilight 5:13 AM CST 7:00 PM CST
Moon 7:26 PM CST (2/16) 7:14 AM CST (2/16)
Length of Visible Light 11h 37m
Length of Day
10h 40m
Full, 97% of the Moon is Illuminated
Feb 16
Full
Feb 22
Last Quarter
Mar 1
New
Mar 8
First Quarter
Mar 16
Full

Hourly Weather History & Observations

Time (CST) Temp. Windchill Dew Point Humidity Pressure Visibility Wind Dir Wind Speed Gust Speed Precip Events Conditions
12:52 AM 16.0 °F 8.8 °F 12.9 °F 88% 29.98 in 6.0 mi SSW 4.6 mph - N/A   Overcast
1:52 AM 17.1 °F 10.0 °F 12.9 °F 84% 29.97 in 6.0 mi West 4.6 mph - N/A   Overcast
2:52 AM 16.0 °F 10.4 °F 12.9 °F 88% 29.96 in 6.0 mi West 3.5 mph - N/A   Overcast
3:52 AM 17.1 °F 5.0 °F 12.9 °F 84% 29.97 in 6.0 mi NW 10.4 mph - N/A   Overcast
4:52 AM 17.1 °F 5.0 °F 14.0 °F 88% 30.01 in 6.0 mi NW 10.4 mph - N/A   Overcast
5:52 AM 18.0 °F 4.8 °F 14.0 °F 84% 30.04 in 6.0 mi NW 12.7 mph - N/A   Overcast
6:52 AM 18.0 °F 5.4 °F 14.0 °F 84% 30.06 in 6.0 mi NNW 11.5 mph - N/A   Overcast
7:28 AM 17.6 °F 4.3 °F 12.2 °F 79% 30.04 in 5.0 mi NNW 12.7 mph - N/A   Haze
7:52 AM 17.1 °F 6.6 °F 12.9 °F 84% 30.12 in 7.0 mi NW 8.1 mph - N/A   Overcast
8:19 AM 17.6 °F 6.4 °F 12.2 °F 79% 30.09 in 5.0 mi NW 9.2 mph - N/A   Haze
8:33 AM 17.6 °F 5.7 °F 12.2 °F 79% 30.10 in 6.0 mi NW 10.4 mph - 0.00 in   Overcast
8:52 AM 19.0 °F 6.8 °F 12.9 °F 77% 30.14 in 6.0 mi NW 11.5 mph - 0.00 in   Haze
9:52 AM 19.9 °F 7.9 °F 12.9 °F 74% 30.16 in 6.0 mi NNW 11.5 mph - 0.00 in   Haze
10:21 AM 19.4 °F 7.2 °F 12.2 °F 74% 30.14 in 8.0 mi North 11.5 mph - N/A   Haze
10:52 AM 21.9 °F 11.0 °F 12.9 °F 68% 30.18 in 8.0 mi NNW 10.4 mph - N/A   Clear
11:52 AM 23.0 °F 13.1 °F 12.9 °F 65% 30.19 in 9.0 mi NW 9.2 mph - N/A   Clear
12:52 PM 25.0 °F 15.5 °F 12.9 °F 60% 30.19 in 10.0 mi NNW 9.2 mph - N/A   Clear
1:52 PM 26.1 °F 17.6 °F 12.9 °F 58% 30.19 in 10.0 mi North 8.1 mph - N/A   Clear
2:52 PM 26.1 °F 16.8 °F 12.9 °F 58% 30.21 in 10.0 mi NE 9.2 mph - N/A   Clear
3:52 PM 25.0 °F 16.3 °F 12.9 °F 60% 30.23 in 10.0 mi NE 8.1 mph - N/A   Clear
4:52 PM 24.1 °F 16.0 °F 14.0 °F 65% 30.26 in 10.0 mi NE 6.9 mph - N/A   Scattered Clouds
5:52 PM 24.1 °F 13.1 °F 15.1 °F 69% 30.28 in 10.0 mi East 11.5 mph - N/A   Scattered Clouds
5:59 PM 24.8 °F 14.6 °F 15.8 °F 69% 30.25 in 10.0 mi East 10.4 mph - N/A   Overcast
6:52 PM 23.0 °F 14.7 °F 16.0 °F 74% 30.28 in 10.0 mi ENE 6.9 mph - N/A   Overcast
7:52 PM 23.0 °F 12.4 °F 15.1 °F 72% 30.29 in 10.0 mi ENE 10.4 mph - N/A   Overcast
8:52 PM 23.0 °F 13.1 °F 16.0 °F 74% 30.27 in 10.0 mi East 9.2 mph - N/A   Overcast
9:52 PM 23.0 °F 18.4 °F 16.0 °F 74% 30.28 in 10.0 mi ESE 3.5 mph - N/A   Overcast
10:52 PM 24.1 °F 16.0 °F 16.0 °F 71% 30.27 in 10.0 mi SE 6.9 mph - N/A   Overcast
11:52 PM 24.1 °F 17.0 °F 16.0 °F 71% 30.27 in 10.0 mi SE 5.8 mph - N/A   Overcast